When you browse on this site, cookies collect data to enhance your experience and personalize the content and advertising you see.
Visit our Privacy Policy to learn more. By continuing to use the site, you agree to this use of cookies and data.
  • en Suisse
  • Liste des pays
  • À 7 jours
  • Température de l'eau
  • Carte satellitaire
  • Carte météo
  • Widgets météo
  • user-avatar
    Se connecter

    Météo par heure à Valencia

    Ce jour, 23 Juillet, Mardi

    Heure Température Précipitation Vent Pression Humidité
    00:00 +21°C° 0 mm 0 m/s 718 mmHg 92%
    01:00 +21°C° 0 mm 0 m/s 718 mmHg 92%
    02:00 +21°C° 0 mm 0 m/s 718 mmHg 92%
    03:00 +21°C° 0 mm 0 m/s 718 mmHg 93%
    04:00 +21°C° 0 mm 0 m/s 717 mmHg 93%
    05:00 +22°C° 0 mm 0 m/s 718 mmHg 92%
    06:00 +22°C° 0 mm 0 m/s 719 mmHg 91%
    07:00 +23°C° 0 mm 0 m/s 719 mmHg 90%
    08:00 +27°C° 0 mm 1 m/s 719 mmHg 81%
    09:00 +28°C° 0 mm 2 m/s 720 mmHg 73%
    10:00 +30°C° 0 mm 2 m/s 720 mmHg 64%
    11:00 +30°C° 0 mm 2 m/s 719 mmHg 62%
    12:00 +31°C° 0 mm 2 m/s 719 mmHg 61%
    13:00 +31°C° 0 mm 3 m/s 718 mmHg 60%
    14:00 +30°C° 0.3 mm 2 m/s 718 mmHg 64%
    15:00 +30°C° 0.3 mm 2 m/s 717 mmHg 69%
    16:00 +29°C° 0.3 mm 1 m/s 717 mmHg 73%
    17:00 +28°C° 0.1 mm 1 m/s 717 mmHg 80%
    18:00 +26°C° 0.1 mm 1 m/s 717 mmHg 87%
    19:00 +25°C° 0.1 mm 1 m/s 718 mmHg 93%
    20:00 +24°C° 0 mm 1 m/s 718 mmHg 94%
    21:00 +24°C° 0 mm 1 m/s 719 mmHg 94%
    22:00 +22°C° 0 mm 0 m/s 719 mmHg 95%
    23:00 +21°C° 0 mm 0 m/s 719 mmHg 95%

    Demain, 24 Juillet, Mercredi

    Heure Température Précipitation Vent Pression Humidité
    00:00 +21°C° 0 mm 0 m/s 718 mmHg 95%
    01:00 +21°C° 0 mm 0 m/s 718 mmHg 96%
    02:00 +21°C° 0 mm 0 m/s 718 mmHg 96%
    03:00 +21°C° 0 mm 0 m/s 718 mmHg 96%
    04:00 +21°C° 0 mm 0 m/s 718 mmHg 96%
    05:00 +21°C° 0 mm 0 m/s 718 mmHg 94%
    06:00 +22°C° 0 mm 0 m/s 719 mmHg 92%
    07:00 +23°C° 0 mm 0 m/s 719 mmHg 90%
    08:00 +25°C° 0 mm 0 m/s 719 mmHg 81%
    09:00 +28°C° 0 mm 1 m/s 720 mmHg 71%
    10:00 +30°C° 0 mm 1 m/s 720 mmHg 61%
    11:00 +30°C° 0.1 mm 1 m/s 719 mmHg 61%
    12:00 +31°C° 0.1 mm 1 m/s 719 mmHg 61%
    13:00 +31°C° 0.1 mm 1 m/s 718 mmHg 61%
    14:00 +30°C° 0.6 mm 1 m/s 718 mmHg 67%
    15:00 +29°C° 0.6 mm 1 m/s 717 mmHg 74%
    16:00 +28°C° 0.6 mm 1 m/s 717 mmHg 81%
    17:00 +27°C° 0.3 mm 1 m/s 717 mmHg 86%
    18:00 +25°C° 0.3 mm 1 m/s 717 mmHg 90%
    19:00 +24°C° 0.3 mm 1 m/s 717 mmHg 94%
    20:00 +23°C° 0 mm 1 m/s 718 mmHg 95%
    21:00 +23°C° 0 mm 1 m/s 718 mmHg 95%
    22:00 +23°C° 0 mm 1 m/s 719 mmHg 95%
    23:00 +23°C° 0 mm 1 m/s 718 mmHg 95%

    Après-demain, 25 Juillet, Jeudi

    Heure Température Précipitation Vent Pression Humidité
    00:00 +23°C° 0 mm 1 m/s 718 mmHg 96%
    01:00 +22°C° 0 mm 1 m/s 717 mmHg 96%
    02:00 +22°C° 0 mm 1 m/s 717 mmHg 96%
    03:00 +20°C° 0 mm 0 m/s 717 mmHg 96%
    04:00 +20°C° 0 mm 0 m/s 717 mmHg 96%
    05:00 +21°C° 0 mm 0 m/s 718 mmHg 95%
    06:00 +22°C° 0 mm 0 m/s 718 mmHg 93%
    07:00 +22°C° 0 mm 0 m/s 719 mmHg 92%
    08:00 +24°C° 0 mm 0 m/s 719 mmHg 82%
    09:00 +28°C° 0 mm 1 m/s 719 mmHg 72%
    10:00 +30°C° 0 mm 1 m/s 720 mmHg 61%
    11:00 +30°C° 0.1 mm 1 m/s 719 mmHg 61%
    12:00 +30°C° 0.1 mm 1 m/s 718 mmHg 61%
    13:00 +30°C° 0.1 mm 2 m/s 718 mmHg 61%
    14:00 +30°C° 0.1 mm 1 m/s 717 mmHg 64%
    15:00 +29°C° 0.1 mm 1 m/s 717 mmHg 68%
    16:00 +29°C° 0.1 mm 1 m/s 716 mmHg 72%
    17:00 +27°C° 0.1 mm 1 m/s 717 mmHg 80%
    18:00 +25°C° 0.1 mm 1 m/s 717 mmHg 88%
    19:00 +24°C° 0.1 mm 1 m/s 717 mmHg 96%
    20:00 +23°C° 0 mm 1 m/s 718 mmHg 96%
    21:00 +23°C° 0 mm 1 m/s 718 mmHg 96%
    22:00 +23°C° 0 mm 1 m/s 719 mmHg 95%
    23:00 +21°C° 0 mm 0 m/s 718 mmHg 95%

    26 Juillet, Vendredi

    Heure Température Précipitation Vent Pression Humidité
    00:00 +21°C° 0 mm 0 m/s 718 mmHg 94%
    01:00 +21°C° 0 mm 0 m/s 717 mmHg 94%
    02:00 +21°C° 0.1 mm 0 m/s 717 mmHg 94%
    03:00 +21°C° 0.1 mm 0 m/s 717 mmHg 94%
    04:00 +21°C° 0.1 mm 0 m/s 717 mmHg 94%
    05:00 +21°C° 0.2 mm 0 m/s 718 mmHg 92%
    06:00 +24°C° 0.2 mm 1 m/s 719 mmHg 91%
    07:00 +25°C° 0.2 mm 1 m/s 719 mmHg 90%
    08:00 +26°C° 0.1 mm 1 m/s 719 mmHg 82%
    09:00 +28°C° 0.1 mm 2 m/s 720 mmHg 74%
    10:00 +29°C° 0.1 mm 2 m/s 720 mmHg 67%
    11:00 +30°C° 0.4 mm 2 m/s 719 mmHg 66%
    12:00 +30°C° 0.4 mm 2 m/s 719 mmHg 66%
    13:00 +30°C° 0.4 mm 2 m/s 718 mmHg 66%
    14:00 +30°C° 1.6 mm 1 m/s 718 mmHg 71%
    15:00 +29°C° 1.6 mm 1 m/s 718 mmHg 76%
    16:00 +28°C° 1.6 mm 1 m/s 717 mmHg 81%
    17:00 +27°C° 0.7 mm 1 m/s 718 mmHg 85%
    18:00 +25°C° 0.7 mm 1 m/s 718 mmHg 89%
    19:00 +24°C° 0.7 mm 1 m/s 718 mmHg 93%
    20:00 +24°C° 0 mm 1 m/s 719 mmHg 94%
    21:00 +23°C° 0 mm 1 m/s 719 mmHg 94%
    22:00 +21°C° 0 mm 0 m/s 719 mmHg 95%
    23:00 +21°C° 0 mm 0 m/s 719 mmHg 95%

    27 Juillet, Samedi

    Heure Température Précipitation Vent Pression Humidité
    00:00 +21°C° 0 mm 0 m/s 718 mmHg 95%
    01:00 +21°C° 0 mm 0 m/s 718 mmHg 95%
    02:00 +21°C° 0 mm 0 m/s 718 mmHg 95%
    03:00 +20°C° 0 mm 0 m/s 718 mmHg 95%
    04:00 +20°C° 0 mm 0 m/s 718 mmHg 96%
    05:00 +21°C° 0 mm 0 m/s 719 mmHg 94%
    06:00 +22°C° 0 mm 0 m/s 719 mmHg 93%
    07:00 +23°C° 0 mm 0 m/s 720 mmHg 92%
    08:00 +25°C° 0.1 mm 0 m/s 720 mmHg 82%
    09:00 +29°C° 0.1 mm 1 m/s 720 mmHg 73%
    10:00 +31°C° 0.1 mm 1 m/s 721 mmHg 64%
    11:00 +30°C° 0.7 mm 1 m/s 720 mmHg 69%
    12:00 +29°C° 0.7 mm 1 m/s 719 mmHg 74%
    13:00 +29°C° 0.7 mm 2 m/s 719 mmHg 78%
    14:00 +28°C° 1 mm 1 m/s 718 mmHg 83%
    15:00 +27°C° 1 mm 1 m/s 718 mmHg 87%
    16:00 +26°C° 1 mm 1 m/s 718 mmHg 91%
    17:00 +26°C° 1 mm 1 m/s 718 mmHg 92%
    18:00 +25°C° 1 mm 1 m/s 719 mmHg 93%
    19:00 +24°C° 1 mm 1 m/s 719 mmHg 94%
    20:00 +24°C° 0.4 mm 1 m/s 719 mmHg 95%
    21:00 +24°C° 0.4 mm 1 m/s 719 mmHg 95%
    22:00 +23°C° 0.4 mm 1 m/s 720 mmHg 95%
    23:00 +23°C° 0.1 mm 1 m/s 719 mmHg 95%

    28 Juillet, Dimanche

    Heure Température Précipitation Vent Pression Humidité
    00:00 +23°C° 0.1 mm 1 m/s 719 mmHg 96%
    01:00 +21°C° 0.1 mm 0 m/s 719 mmHg 96%
    02:00 +21°C° 0.1 mm 0 m/s 718 mmHg 95%
    03:00 +21°C° 0.1 mm 0 m/s 718 mmHg 95%
    04:00 +21°C° 0.1 mm 0 m/s 718 mmHg 95%
    05:00 +21°C° 0.2 mm 0 m/s 719 mmHg 95%
    06:00 +21°C° 0.2 mm 0 m/s 719 mmHg 95%
    07:00 +21°C° 0.2 mm 0 m/s 719 mmHg 95%
    08:00 +24°C° 0.1 mm 1 m/s 720 mmHg 93%
    09:00 +24°C° 0.1 mm 1 m/s 720 mmHg 91%
    10:00 +25°C° 0.1 mm 1 m/s 720 mmHg 89%
    11:00 +24°C° 1 mm 1 m/s 720 mmHg 91%
    12:00 +24°C° 1 mm 1 m/s 719 mmHg 93%
    13:00 +24°C° 1 mm 2 m/s 719 mmHg 95%
    14:00 +24°C° 0.5 mm 1 m/s 718 mmHg 94%
    15:00 +24°C° 0.5 mm 1 m/s 718 mmHg 94%
    16:00 +24°C° 0.5 mm 1 m/s 717 mmHg 93%
    17:00 +23°C° 0 mm 1 m/s 717 mmHg 94%
    18:00 +23°C° 0 mm 1 m/s 717 mmHg 94%
    19:00 +23°C° 0 mm 1 m/s 718 mmHg 95%
    20:00 +23°C° 0 mm 1 m/s 718 mmHg 93%
    21:00 +23°C° 0 mm 1 m/s 718 mmHg 92%
    22:00 +23°C° 0 mm 1 m/s 718 mmHg 91%
    23:00 +23°C° 0 mm 1 m/s 718 mmHg 92%
    Voir plus